Weather History for Cortez, CO

Change the Weather History Date:

Wednesday, June 5, 2013

  Actual Average Record
Temperature  
Mean Temperature 66 °F 61 °F  
Max Temperature 87 °F 81 °F 95 °F (2006)
Min Temperature 45 °F 41 °F 27 °F (1999)
Degree Days  
Heating Degree Days 0 5  
Month to date heating degree days 12 26  
Since 1 June heating degree days 12 26  
Since 1 July heating degree days 6406 6393  
Cooling Degree Days 1 1  
Month to date cooling degree days 4 5  
Year to date cooling degree days 4 10  
Since 1 June cooling degree days 4 5  
Growing Degree Days 15 (Base 50)    
Moisture  
Dew Point 26 °F    
Average Humidity 31    
Maximum Humidity 53    
Minimum Humidity 9    
Precipitation  
Precipitation 0.00 in 0.02 in 0.15 in (2008)
Month to date precipitation T 0.13  
Year to date precipitation 3.33 5.27  
Sea Level Pressure  
Sea Level Pressure 29.85 in    
Wind  
Wind Speed 7 mph (NNE)    
Max Wind Speed 21 mph    
Max Gust Speed 32 mph    
Visibility 10 miles    
Events      
T = Trace of Precipitation, MM = Missing Value Source: NWS Daily Summary

Daily Weather History Graph

Daily Weather History Graph

Search for Another Location

Airport:

Trip Planner

Search our weather history database for the weather conditions in past years. The results will help you decide how hot, cold, wet, or windy it might be!

Date:

Astronomy

Jun. 05, 2013 Rise Set
Actual Time 5:54 AM MDT 8:32 PM MDT
Civil Twilight 5:23 AM MDT 9:02 PM MDT
Nautical Twilight 4:45 AM MDT 9:41 PM MDT
Astronomical Twilight 4:02 AM MDT 10:23 PM MDT
Moon 3:57 AM MDT (6/5) 6:04 PM MDT (6/5)
Length of Visible Light 15h 39m
Length of Day
14h 37m
Waning Crescent, 8% of the Moon is Illuminated
Jun 5
Waning Crescent
Jun 8
New
Jun 16
First Quarter
Jun 23
Full
Jun 29
Last Quarter

Hourly Weather History & Observations

Time (MDT) Temp. Windchill Dew Point Humidity Pressure Visibility Wind Dir Wind Speed Gust Speed Precip Events Conditions
12:53 AM 52.0 °F - 30.0 °F 43% 29.82 in 10.0 mi ESE 3.5 mph - N/A   Clear
1:53 AM 51.1 °F - 28.0 °F 41% 29.83 in 10.0 mi ENE 6.9 mph - N/A   Clear
2:53 AM 50.0 °F - 30.9 °F 48% 29.83 in 10.0 mi NE 6.9 mph - N/A   Clear
3:53 AM 46.9 °F - 30.0 °F 52% 29.84 in 10.0 mi ESE 3.5 mph - N/A   Clear
4:53 AM 48.9 °F - 28.9 °F 46% 29.85 in 10.0 mi Calm Calm - N/A   Clear
5:53 AM 46.0 °F 43.1 °F 28.9 °F 51% 29.87 in 10.0 mi East 5.8 mph - N/A   Clear
6:53 AM 50.0 °F - 28.0 °F 43% 29.87 in 10.0 mi Calm Calm - N/A   Clear
7:53 AM 60.1 °F - 32.0 °F 35% 29.87 in 10.0 mi East 4.6 mph - N/A   Clear
8:53 AM 66.9 °F - 35.1 °F 31% 29.91 in 10.0 mi ESE 5.8 mph - N/A   Clear
9:53 AM 75.9 °F - 36.0 °F 23% 29.88 in 10.0 mi East 5.8 mph - N/A   Clear
10:53 AM 81.0 °F - 27.0 °F 14% 29.87 in 10.0 mi North 11.5 mph - N/A   Clear
11:53 AM 82.9 °F - 23.0 °F 11% 29.86 in 10.0 mi NW 11.5 mph 18.4 mph N/A   Clear
12:53 PM 84.9 °F - 24.1 °F 11% 29.85 in 10.0 mi North 10.4 mph 20.7 mph N/A   Clear
1:53 PM 84.9 °F - 19.9 °F 9% 29.84 in 10.0 mi NNW 15.0 mph 24.2 mph N/A   Clear
2:53 PM 84.0 °F - 21.9 °F 10% 29.83 in 10.0 mi NNW 12.7 mph 20.7 mph N/A   Clear
3:53 PM 82.9 °F - 21.9 °F 11% 29.83 in 10.0 mi NW 11.5 mph 16.1 mph N/A   Clear
4:24 PM 82.4 °F - 21.2 °F 10% 30.03 in 10.0 mi West 9.2 mph 32.2 mph N/A   Partly Cloudy
4:53 PM 82.0 °F - 23.0 °F 11% 29.82 in 10.0 mi SW 5.8 mph - N/A   Partly Cloudy
5:20 PM 82.4 °F - 21.2 °F 10% 30.02 in 10.0 mi NW 13.8 mph 26.5 mph N/A   Clear
5:53 PM 84.9 °F - 19.9 °F 9% 29.80 in 10.0 mi NW 6.9 mph - N/A   Clear
6:53 PM 82.9 °F - 18.0 °F 9% 29.79 in 10.0 mi NNW 13.8 mph 24.2 mph N/A   Clear
7:53 PM 79.0 °F - 21.0 °F 12% 29.79 in 10.0 mi North 12.7 mph 20.7 mph N/A   Clear
8:53 PM 71.1 °F - 23.0 °F 16% 29.80 in 10.0 mi North 5.8 mph - N/A   Clear
9:53 PM 64.9 °F - 24.1 °F 21% 29.82 in 10.0 mi Calm Calm - N/A   Clear
10:53 PM 55.9 °F - 28.0 °F 34% 29.85 in 10.0 mi ENE 6.9 mph - N/A   Clear
11:53 PM 53.1 °F - 27.0 °F 37% 29.85 in 10.0 mi NE 5.8 mph - N/A   Clear